| time (UTC) | temp C | wind direction | speed KPH | gust KPH | rain 1hr cm | rain 24hr cm | rain mn cm | humidity % | barometer mb |
| 20260502123022 | 15 | 142 | 9.7 | 20.9 | 0.00 | 0.05 | 0.05 | 64 | 1022.4 |
| 20260502121514 | 15 | 150 | 6.4 | 14.5 | 0.00 | 0.05 | 0.05 | 65 | 1022.3 |
| 20260502114510 | 14 | 117 | 3.2 | 14.5 | 0.00 | 0.05 | 0.05 | 67 | 1022.7 |
| 20260502113005 | 13 | 40 | 4.8 | 9.7 | 0.00 | 0.05 | 0.05 | 70 | 1022.7 |
| 20260502111502 | 13 | 34 | 8.0 | 14.5 | 0.00 | 0.05 | 0.05 | 75 | 1022.8 |
| 20260502110058 | 12 | 19 | 4.8 | 12.9 | 0.00 | 0.05 | 0.05 | 75 | 1022.9 |
| 20260502104557 | 12 | 23 | 6.4 | 11.3 | 0.00 | 0.05 | 0.05 | 77 | 1022.9 |
| 20260502103056 | 12 | 38 | 8.0 | 11.3 | 0.00 | 0.05 | 0.05 | 79 | 1023.1 |
| 20260502101615 | 11 | 20 | 4.8 | 9.7 | 0.00 | 0.05 | 0.05 | 78 | 1023.5 |
| 20260502100108 | 11 | 48 | 4.8 | 9.7 | 0.00 | 0.05 | 0.05 | 80 | 1023.4 |
| 20260502070040 | 11 | 136 | 0.0 | 6.4 | 0.00 | 0.00 | 0.00 | 83 | 1023.3 |
| 20260502064556 | 11 | 123 | 0.0 | 6.4 | 0.00 | 0.00 | 0.00 | 83 | 1023.4 |
| 20260502063035 | 11 | 90 | 1.6 | 6.4 | 0.00 | 0.00 | 0.00 | 83 | 1023.1 |
| 20260502061633 | 11 | 90 | 0.0 | 6.4 | 0.00 | 0.00 | 0.00 | 83 | 1023.0 |
| 20260502060042 | 11 | 90 | 3.2 | 9.7 | 0.00 | 0.00 | 0.00 | 82 | 1022.9 |
| 20260502054529 | 12 | 76 | 1.6 | 6.4 | 0.00 | 0.00 | 0.00 | 82 | 1022.9 |
| 20260502053028 | 12 | 76 | 0.0 | 1.6 | 0.00 | 0.00 | 0.00 | 81 | 1022.7 |
| 20260502051532 | 12 | 76 | 0.0 | 3.2 | 0.00 | 0.00 | 0.00 | 81 | 1022.6 |
| 20260502050033 | 12 | 76 | 0.0 | 4.8 | 0.00 | 0.00 | 0.00 | 81 | 1022.6 |
| 20260502044523 | 12 | 51 | 1.6 | 9.7 | 0.00 | 0.00 | 0.00 | 81 | 1022.6 |
| 20260502043024 | 12 | 21 | 4.8 | 9.7 | 0.00 | 0.00 | 0.00 | 81 | 1022.5 |
| 20260502041528 | 12 | 5 | 8.0 | 12.9 | 0.00 | 0.00 | 0.00 | 82 | 1022.4 |
| 20260502040022 | 12 | 16 | 6.4 | 14.5 | 0.00 | 0.00 | 0.00 | 82 | 1022.5 |
| 20260502034519 | 12 | 11 | 4.8 | 14.5 | 0.00 | 0.00 | 0.00 | 82 | 1022.6 |
| 20260502033026 | 12 | 20 | 6.4 | 14.5 | 0.00 | 0.00 | 0.00 | 81 | 1022.6 |
| 20260502031516 | 12 | 70 | 6.4 | 14.5 | 0.00 | 0.00 | 0.00 | 80 | 1022.7 |
| 20260502030016 | 12 | 53 | 9.7 | 16.1 | 0.00 | 0.00 | 0.00 | 80 | 1022.7 |
| 20260502024516 | 12 | 51 | 8.0 | 14.5 | 0.00 | 0.00 | 0.00 | 80 | 1022.8 |
| 20260502023013 | 12 | 32 | 6.4 | 11.3 | 0.00 | 0.00 | 0.00 | 79 | 1022.9 |
| 20260502021510 | 12 | 16 | 6.4 | 11.3 | 0.00 | 0.00 | 0.00 | 80 | 1023.0 |
| 20260502020108 | 12 | 31 | 8.0 | 14.5 | 0.00 | 0.00 | 0.00 | 80 | 1023.2 |
| 20260502014505 | 12 | 33 | 8.0 | 14.5 | 0.00 | 0.00 | 0.00 | 80 | 1023.2 |
| 20260502013003 | 12 | 24 | 8.0 | 12.9 | 0.00 | 0.00 | 0.00 | 80 | 1023.2 |
| 20260502011604 | 12 | 40 | 8.0 | 14.5 | 0.00 | 0.00 | 0.00 | 80 | 1023.4 |
| 20260502010109 | 12 | 49 | 6.4 | 11.3 | 0.00 | 0.00 | 0.00 | 80 | 1023.4 |
| 20260502004555 | 12 | 53 | 6.4 | 9.7 | 0.00 | 0.00 | 0.00 | 80 | 1023.5 |
| 20260502003052 | 12 | 52 | 4.8 | 9.7 | 0.00 | 0.00 | 0.00 | 80 | 1023.8 |
| 20260502001550 | 12 | 60 | 3.2 | 8.0 | 0.00 | 0.00 | 0.00 | 80 | 1024.0 |
| 20260502000051 | 12 | 30 | 3.2 | 4.8 | 0.00 | 0.00 | 0.00 | 80 | 1024.1 |
| 20260501234548 | 11 | 76 | 1.6 | 4.8 | 0.00 | 0.00 | 0.00 | 81 | 1024.1 |
| 20260501233048 | 11 | 146 | 0.0 | 1.6 | 0.00 | 0.00 | 0.00 | 81 | 1024.3 |
| 20260501231545 | 11 | 146 | 0.0 | 3.2 | 0.00 | 0.00 | 0.00 | 82 | 1024.4 |
| 20260501230044 | 11 | 146 | 0.0 | 3.2 | 0.00 | 0.00 | 0.00 | 83 | 1024.2 |
| 20260501224543 | 11 | 146 | 0.0 | 1.6 | 0.00 | 0.00 | 0.00 | 83 | 1024.1 |
| 20260501223042 | 11 | 146 | 0.0 | 4.8 | 0.00 | 0.00 | 0.00 | 84 | 1024.0 |
| 20260501221538 | 12 | 146 | 0.0 | 3.2 | 0.00 | 0.00 | 0.00 | 84 | 1024.0 |
| 20260501220039 | 12 | 146 | 0.0 | 1.6 | 0.00 | 0.00 | 0.00 | 83 | 1024.0 |
| 20260501214536 | 12 | 150 | 0.0 | 8.0 | 0.00 | 0.00 | 0.00 | 83 | 1024.1 |
| 20260501213037 | 12 | 172 | 3.2 | 14.5 | 0.00 | 0.00 | 0.00 | 82 | 1024.0 |
| 20260501211536 | 12 | 180 | 1.6 | 14.5 | 0.00 | 0.00 | 0.00 | 82 | 1024.0 |
| 20260501210034 | 12 | 186 | 1.6 | 9.7 | 0.00 | 0.00 | 0.00 | 81 | 1023.9 |
| 20260501204634 | 12 | 184 | 3.2 | 11.3 | 0.00 | 0.00 | 0.00 | 80 | 1023.9 |
| 20260501203031 | 12 | 169 | 4.8 | 11.3 | 0.00 | 0.00 | 0.00 | 79 | 1023.8 |
| 20260501201531 | 13 | 186 | 4.8 | 12.9 | 0.00 | 0.00 | 0.00 | 77 | 1023.6 |
| 20260501200032 | 13 | 181 | 6.4 | 12.9 | 0.00 | 0.00 | 0.00 | 74 | 1023.6 |
| 20260501194528 | 13 | 164 | 3.2 | 9.7 | 0.00 | 0.00 | 0.00 | 72 | 1023.5 |
| 20260501193025 | 14 | 145 | 0.0 | 3.2 | 0.00 | 0.00 | 0.00 | 70 | 1023.2 |
| 20260501191533 | 15 | 155 | 0.0 | 1.6 | 0.00 | 0.00 | 0.00 | 69 | 1023.1 |
| 20260501190022 | 15 | 128 | 6.4 | 11.3 | 0.00 | 0.00 | 0.00 | 66 | 1023.0 |
| 20260501184537 | 16 | 121 | 0.0 | 6.4 | 0.00 | 0.00 | 0.00 | 65 | 1022.8 |
| 20260501183023 | 16 | 121 | 3.2 | 6.4 | 0.00 | 0.00 | 0.00 | 65 | 1022.7 |
| 20260501181517 | 16 | 121 | 0.0 | 3.2 | 0.00 | 0.00 | 0.00 | 66 | 1022.4 |
| 20260501180017 | 16 | 120 | 0.0 | 6.4 | 0.00 | 0.00 | 0.00 | 65 | 1022.2 |
| 20260501174517 | 17 | 122 | 0.0 | 14.5 | 0.00 | 0.00 | 0.00 | 64 | 1022.1 |
| 20260501173016 | 17 | 105 | 4.8 | 14.5 | 0.00 | 0.00 | 0.00 | 62 | 1022.0 |
| 20260501171516 | 17 | 80 | 8.0 | 17.7 | 0.00 | 0.00 | 0.00 | 62 | 1021.8 |
| 20260501170013 | 17 | 101 | 8.0 | 17.7 | 0.00 | 0.00 | 0.00 | 61 | 1021.8 |
| 20260501164512 | 17 | 101 | 9.7 | 22.5 | 0.00 | 0.00 | 0.00 | 61 | 1021.8 |
| 20260501163013 | 17 | 64 | 9.7 | 19.3 | 0.00 | 0.00 | 0.00 | 61 | 1021.6 |
| 20260501161511 | 17 | 72 | 12.9 | 19.3 | 0.00 | 0.00 | 0.00 | 61 | 1021.6 |
| 20260501160110 | 17 | 101 | 8.0 | 16.1 | 0.00 | 0.00 | 0.00 | 62 | 1021.6 |
| 20260501154510 | 17 | 94 | 12.9 | 19.3 | 0.00 | 0.00 | 0.00 | 62 | 1021.5 |
| 20260501153008 | 17 | 103 | 8.0 | 16.1 | 0.00 | 0.00 | 0.00 | 62 | 1021.5 |
| 20260501151507 | 17 | 117 | 12.9 | 17.7 | 0.00 | 0.00 | 0.00 | 62 | 1021.6 |
| 20260501150009 | 17 | 83 | 11.3 | 19.3 | 0.00 | 0.00 | 0.00 | 61 | 1021.6 |
| 20260501144505 | 17 | 95 | 11.3 | 19.3 | 0.00 | 0.00 | 0.00 | 61 | 1021.5 |
| 20260501143004 | 18 | 67 | 14.5 | 20.9 | 0.00 | 0.00 | 0.00 | 60 | 1021.5 |